{"data":{"norad_id":68803,"epoch":"2026-09-19T09:18:11.269152Z","epoch_age_seconds":136123,"freshness":"FRESH","line1":"1 68803U 26089B   26262.38763043  .00007521  00000+0  23503-3 0  9992","line2":"2 68803  97.2854 108.0895 0001725  91.7301 268.4139 15.33447119 23083","mean_motion":15.33447119,"eccentricity":0.0001725,"inclination_deg":97.2854,"raan_deg":108.0895,"arg_perigee_deg":91.7301,"mean_anomaly_deg":268.4139,"bstar":0.00023503,"rev_number":2308,"period_min":93.906074892172,"perigee_km":464.35633608969,"apogee_km":466.71740357478,"semimajor_km":6843.6738698322,"source":"CELESTRAK","updated_at":"2026-09-20T09:00:44.005282Z"}}